FW3145 Weather Reports


Display with metric or nautical units.
time (UTC)temp
F
wind
direction
speed
MPH
gust
MPH
rain 1hr
in
rain 24hr
in
rain mn
in
humidity
%
barometer
mb
20260903133024 91 277 0.0 0.0 0.00 0.00 0.00 42 1013.0
20260903131524 93 274 0.0 0.0 0.00 0.00 0.00 38 1013.0
20260903130020 92 222 0.0 0.0 0.00 0.00 0.00 40 1013.0
20260903124518 91 128 0.0 0.0 0.00 0.00 0.00 40 1013.2
20260903123017 91 147 0.0 0.0 0.00 0.00 0.00 40 1013.3
20260903121516 91 194 0.0 0.0 0.00 0.00 0.00 40 1013.5
20260903120021 91 338 0.0 0.0 0.00 0.00 0.00 43 1013.5
20260903114512 91 141 0.0 0.0 0.00 0.00 0.00 41 1013.5
20260903113009 90 174 0.0 0.0 0.00 0.00 0.00 41 1013.7
20260903111506 90 290 0.0 0.0 0.00 0.00 0.00 46 1013.8
20260903110001 89 153 0.0 0.0 0.00 0.00 0.00 46 1014.0
20260903104631 89 229 0.0 0.0 0.00 0.00 0.00 46 1014.0
20260903103056 88 259 0.0 0.0 0.00 0.00 0.00 53 1014.2
20260903101551 87 172 0.0 0.0 0.00 0.00 0.00 52 1014.4
20260903100046 86 189 0.0 0.0 0.00 0.00 0.00 56 1014.6
20260903094544 85 190 0.0 0.0 0.00 0.00 0.00 59 1014.8
20260903093043 84 153 0.0 0.0 0.00 0.00 0.00 64 1014.9
20260903091535 83 196 0.0 0.0 0.00 0.00 0.00 64 1015.0
20260903090032 82 184 0.0 0.0 0.00 0.00 0.00 66 1015.0
20260903084532 82 150 0.0 0.0 0.00 0.00 0.00 66 1015.0
20260903083022 81 146 0.0 0.0 0.00 0.00 0.00 69 1015.0
20260903081518 79 197 0.0 0.0 0.00 0.00 0.00 70 1014.9
20260903080014 79 140 0.0 0.0 0.00 0.00 0.00 70 1014.9
20260903074509 78 169 0.0 0.0 0.00 0.00 0.00 73 1014.8
20260903073014 76 160 0.0 0.0 0.00 0.00 0.00 74 1014.9
20260903071501 76 164 0.0 0.0 0.00 0.00 0.00 76 1014.9
20260903070100 75 163 0.0 0.0 0.00 0.00 0.00 77 1015.0
20260903064552 74 86 0.0 0.0 0.00 0.00 0.00 78 1014.9
20260903063053 73 67 0.0 0.0 0.00 0.00 0.00 79 1014.9
20260903061558 73 67 0.0 0.0 0.00 0.00 0.00 79 1015.0
20260903060043 72 345 0.0 0.0 0.00 0.00 0.00 80 1014.9
20260903054539 69 345 0.0 0.0 0.00 0.00 0.00 79 1014.8
20260903053035 67 345 0.0 0.0 0.00 0.00 0.00 79 1014.8
20260903051531 65 345 0.0 0.0 0.00 0.00 0.00 80 1014.8
20260903050027 65 345 0.0 0.0 0.00 0.00 0.00 80 1014.6
20260903044525 65 345 0.0 0.0 0.00 0.00 0.00 81 1014.5
20260903043023 65 345 0.0 0.0 0.00 0.00 0.00 81 1014.6
20260903041526 65 345 0.0 0.0 0.00 0.00 0.00 81 1014.4
20260903040020 66 345 0.0 0.0 0.00 0.00 0.00 81 1014.5
20260903034519 66 355 0.0 0.0 0.00 0.00 0.00 81 1014.4
20260903033016 67 355 0.0 0.0 0.00 0.00 0.00 80 1014.5
20260903031515 67 355 0.0 0.0 0.00 0.00 0.00 81 1014.6
20260903030018 67 355 0.0 0.0 0.00 0.00 0.00 81 1014.5
20260903024514 66 355 0.0 0.0 0.00 0.00 0.00 80 1014.5
20260903023012 67 355 0.0 0.0 0.00 0.00 0.00 81 1014.5
20260903021511 67 355 0.0 0.0 0.00 0.00 0.00 80 1014.5
20260903020009 67 355 0.0 0.0 0.00 0.00 0.00 80 1014.6
20260903014507 68 355 0.0 0.0 0.00 0.00 0.00 80 1014.6
20260903013005 68 355 0.0 0.0 0.00 0.00 0.00 80 1014.7
20260903011510 68 355 0.0 0.0 0.00 0.00 0.00 80 1014.6
20260903010002 69 355 0.0 0.0 0.00 0.00 0.00 80 1014.7
20260903004601 69 355 0.0 0.0 0.00 0.00 0.00 80 1014.8
20260903003104 69 355 0.0 0.0 0.00 0.00 0.00 80 1014.9
20260903001600 70 355 0.0 0.0 0.00 0.00 0.00 79 1015.0
20260903000056 70 355 0.0 0.0 0.00 0.00 0.00 79 1014.9
20260902234555 71 355 0.0 0.0 0.00 0.00 0.00 79 1015.0
20260902233051 71 355 0.0 0.0 0.00 0.00 0.00 78 1015.0
20260902231606 72 355 0.0 0.0 0.00 0.00 0.00 77 1015.0
20260902230047 72 355 0.0 0.0 0.00 0.00 0.00 77 1014.9
20260902224557 73 16 0.0 0.0 0.00 0.00 0.00 77 1014.9
20260902223051 74 28 0.0 0.0 0.00 0.00 0.00 78 1015.0
20260902221554 74 27 0.0 0.0 0.00 0.00 0.00 76 1015.0
20260902220053 74 28 0.0 0.0 0.00 0.00 0.00 75 1015.0
20260902214539 74 28 0.0 0.0 0.00 0.00 0.00 75 1015.1
20260902213040 73 5 0.0 0.0 0.00 0.00 0.00 74 1015.1
20260902211538 72 26 0.0 0.0 0.00 0.00 0.00 74 1015.0
20260902210045 72 342 0.0 0.0 0.00 0.00 0.00 72 1015.0
20260902204542 72 334 0.0 0.0 0.00 0.00 0.00 71 1015.0
20260902203042 72 334 0.0 0.0 0.00 0.00 0.00 71 1015.0
20260902201547 73 349 0.0 0.0 0.00 0.00 0.00 70 1015.0
20260902200035 73 11 0.0 0.0 0.00 0.00 0.00 69 1015.0
20260902194536 74 15 0.0 0.0 0.00 0.00 0.00 68 1015.1
20260902193042 74 20 0.0 0.0 0.00 0.00 0.00 66 1014.9
20260902191534 75 328 0.0 0.0 0.00 0.00 0.00 66 1014.8
20260902190033 75 276 0.0 0.0 0.00 0.00 0.00 64 1014.8
20260902184532 77 275 0.0 0.0 0.00 0.00 0.00 62 1014.6
20260902183034 77 267 0.0 0.0 0.00 0.00 0.00 59 1014.7
20260902181531 77 338 0.0 0.0 0.00 0.00 0.00 60 1014.4
20260902180031 78 344 0.0 0.0 0.00 0.00 0.00 59 1014.3
20260902174530 80 326 0.0 0.0 0.00 0.00 0.00 57 1014.1
20260902173029 82 326 0.0 0.0 0.00 0.00 0.00 52 1014.1
20260902171531 83 313 0.0 0.0 0.00 0.00 0.00 50 1014.2
20260902170028 84 303 0.0 0.0 0.00 0.00 0.00 50 1014.0
20260902164534 85 321 0.0 0.0 0.00 0.00 0.00 50 1014.0
20260902163034 86 257 0.0 0.0 0.00 0.00 0.00 50 1014.0
20260902161527 86 288 0.0 0.0 0.00 0.00 0.00 50 1014.0
20260902160026 87 269 0.0 0.0 0.00 0.00 0.00 51 1014.0
20260902154529 88 263 0.0 0.0 0.00 0.00 0.00 48 1014.1
20260902153042 89 267 0.0 0.0 0.00 0.00 0.00 48 1013.9
20260902151524 89 282 0.0 0.0 0.00 0.00 0.00 46 1013.9
20260902150024 90 304 0.0 0.0 0.00 0.00 0.00 48 1013.9
20260902144523 90 277 0.0 0.0 0.00 0.00 0.00 46 1013.9
20260902143022 91 300 0.0 0.0 0.00 0.00 0.00 46 1013.9
20260902141521 92 269 0.0 0.0 0.00 0.00 0.00 43 1013.9
20260902140020 92 244 0.0 0.0 0.00 0.00 0.00 42 1014.0
20260902134618 92 221 0.0 0.0 0.00 0.00 0.00 39 1014.1